Milan, NH

2:28 AM EST on January 19, 2017 (GMT -0500)
Berlin Municipal

Weather History for KBML - October, 2012

Change the Weather History Date:

Wednesday, October 3, 2012

  Actual Average Record
Temperature  
Mean Temperature 60 °F -  
Max Temperature 66 °F 58 °F 78 °F (2005)
Min Temperature 55 °F 31 °F 27 °F (1997)
Degree Days  
Heating Degree Days 4    
Growing Degree Days 10 (Base 50)    
Moisture  
Dew Point 56 °F    
Average Humidity 87    
Maximum Humidity 94    
Minimum Humidity 68    
Precipitation  
Precipitation 0.10 in - - ()
Sea Level Pressure  
Sea Level Pressure 30.13 in    
Wind  
Wind Speed 1 mph (North)    
Max Wind Speed 5 mph    
Max Gust Speed -    
Visibility 7 miles    
Events Rain    
Averages and records for this station are not official NWS values.
T = Trace of Precipitation, MM = Missing Value Source: NWS Daily Summary

Daily Weather History Graph

Daily Weather History Graph

Search for Another Location

Airport or City:

Trip Planner

Search our weather history database for the weather conditions in past years. The results will help you decide how hot, cold, wet, or windy it might be!

Date:

Astronomy

Oct. 03, 2012 Rise Set
Actual Time 6:45 AM EDT 6:20 PM EDT
Civil Twilight 6:16 AM EDT 6:49 PM EDT
Nautical Twilight 5:42 AM EDT 7:23 PM EDT
Astronomical Twilight 5:08 AM EDT 7:57 PM EDT
Moon 8:00 PM EDT (10/3) 10:15 AM EDT (10/3)
Length of Visible Light 12h 33m
Length of Day
11h 35m
Waning Gibbous, 89% of the Moon is Illuminated
Oct 3
Waning Gibbous
Oct 8
Last Quarter
Oct 15
New
Oct 21
First Quarter
Oct 29
Full

Hourly Weather History & Observations

Time (EDT) Temp. Dew Point Humidity Pressure Visibility Wind Dir Wind Speed Gust Speed Precip Events Conditions
12:52 AM 55.9 °F 54.0 °F 93% 30.07 in 10.0 mi Calm Calm - N/A   Overcast
1:52 AM 55.9 °F 53.1 °F 90% 30.07 in 10.0 mi Calm Calm - N/A   Overcast
2:52 AM 55.9 °F 53.1 °F 90% 30.08 in 10.0 mi Calm Calm - N/A   Overcast
3:26 AM 55.4 °F 53.6 °F 94% 30.08 in 10.0 mi Calm Calm - N/A   Overcast
3:52 AM 55.9 °F 53.1 °F 90% 30.09 in 10.0 mi NNW 3.5 mph - N/A   Overcast
4:52 AM 55.9 °F 54.0 °F 93% 30.09 in 10.0 mi Calm Calm - N/A   Overcast
5:52 AM 55.9 °F 54.0 °F 93% 30.11 in 10.0 mi Calm Calm - N/A   Overcast
6:52 AM 57.0 °F 54.0 °F 89% 30.12 in 10.0 mi Calm Calm - N/A   Overcast
7:52 AM 57.9 °F 54.0 °F 87% 30.13 in 10.0 mi Calm Calm - N/A   Overcast
8:02 AM 57.2 °F 53.6 °F 88% 30.12 in 10.0 mi Calm Calm - N/A   Overcast
8:52 AM 59.0 °F 53.1 °F 81% 30.14 in 10.0 mi North 4.6 mph - N/A   Overcast
9:52 AM 60.1 °F 54.0 °F 80% 30.15 in 10.0 mi Calm Calm - N/A   Overcast
10:52 AM 60.1 °F 55.9 °F 86% 30.15 in 10.0 mi Calm Calm - 0.02 in Rain Light Rain
11:52 AM 64.0 °F 57.0 °F 78% 30.14 in 10.0 mi Calm Calm - 0.00 in   Overcast
12:52 PM 64.9 °F 55.9 °F 73% 30.12 in 10.0 mi Calm Calm - N/A   Overcast
1:19 PM 66.2 °F 55.4 °F 68% 30.11 in 10.0 mi North 3.5 mph - N/A   Overcast
1:52 PM 66.9 °F 55.9 °F 68% 30.10 in 10.0 mi NW 3.5 mph - N/A   Overcast
2:52 PM 64.0 °F 57.0 °F 78% 30.12 in 10.0 mi SSE 4.6 mph - 0.01 in   Overcast
3:10 PM 62.6 °F 57.2 °F 82% 30.12 in 5.0 mi SSE 4.6 mph - 0.00 in Rain Light Rain
3:52 PM 61.0 °F 57.0 °F 87% 30.14 in 2.0 mi Calm Calm - 0.02 in Rain Light Rain
4:01 PM 60.8 °F 57.2 °F 88% 30.13 in 5.0 mi Calm Calm - 0.00 in Rain Light Rain
4:52 PM 61.0 °F 57.9 °F 90% 30.14 in 3.0 mi Calm Calm - 0.00 in Rain Light Rain
5:05 PM 60.8 °F 57.2 °F 88% 30.14 in 1.8 mi Calm Calm - 0.01 in Rain Light Rain
5:18 PM 60.8 °F 57.2 °F 88% 30.14 in 2.0 mi Calm Calm - 0.01 in Rain Light Rain
5:27 PM 60.8 °F 57.2 °F 88% 30.14 in 3.0 mi Calm Calm - 0.02 in Rain Light Rain
5:41 PM 60.8 °F 57.2 °F 88% 30.14 in 3.0 mi Calm Calm - 0.02 in   Overcast
5:52 PM 60.1 °F 57.9 °F 93% 30.15 in 4.0 mi Calm Calm - 0.02 in   Overcast
6:32 PM 60.8 °F 57.2 °F 88% 30.15 in 6.0 mi Calm Calm - N/A   Overcast
6:48 PM 60.8 °F 57.2 °F 88% 30.15 in 5.0 mi Calm Calm - N/A   Overcast
6:52 PM 60.1 °F 57.9 °F 93% 30.16 in 4.0 mi Calm Calm - N/A   Overcast
7:04 PM 60.8 °F 57.2 °F 88% 30.16 in 4.0 mi Calm Calm - N/A   Overcast
7:37 PM 60.8 °F 57.2 °F 88% 30.16 in 8.0 mi Calm Calm - N/A   Overcast
7:52 PM 60.1 °F 57.0 °F 90% 30.17 in 8.0 mi Calm Calm - N/A   Overcast
8:52 PM 59.0 °F 57.0 °F 93% 30.18 in 4.0 mi Calm Calm - 0.01 in Rain Light Rain
9:14 PM 59.0 °F 57.2 °F 94% 30.17 in 8.0 mi Calm Calm - N/A   Overcast
9:52 PM 59.0 °F 57.0 °F 93% 30.18 in 8.0 mi Calm Calm - 0.00 in   Overcast
10:52 PM 59.0 °F 57.0 °F 93% 30.18 in 3.0 mi Calm Calm - 0.01 in Rain Light Rain
11:07 PM 59.0 °F 57.2 °F 94% 30.18 in 2.5 mi Calm Calm - 0.00 in Rain Light Rain
11:52 PM 59.0 °F 57.0 °F 93% 30.19 in 2.0 mi Calm Calm - 0.01 in Rain Light Rain